Location: Newark
(36.1358°N, 115.1208°W)
Time: 03:56:46
(UTC+00:00)

N. Korean satellite - Visible Passes

Search period start: 20 January 2020 00:00
Search period end: 30 January 2020 00:00
Orbit: 454 x 508 km, 97.2° (Epoch: 19 January)

Date Brightness Start Highest point End Pass type
(mag) Time Alt. Az. Time Alt. Az. Time Alt. Az.
20 Jan 9.4 12:40:04 10° NE 12:42:35 18° E 12:45:07 10° SE visible
20 Jan 7.8 14:13:09 10° NNW 14:15:52 21° WNW 14:18:37 10° WSW visible
21 Jan 6.8 13:47:05 10° N 13:50:30 46° WNW 13:53:57 10° SSW visible
22 Jan 6.7 13:21:30 10° NNE 13:25:03 73° E 13:28:39 10° S visible
23 Jan 9.5 01:28:19 10° SSW 01:30:59 21° W 01:33:39 10° NW visible
23 Jan 8.5 12:56:20 10° NE 12:59:32 30° E 13:02:46 10° SSE visible
24 Jan 9.8 12:31:53 10° ENE 12:33:55 14° E 12:35:59 10° SE visible
24 Jan 7.5 14:04:15 10° NNW 14:07:18 27° WNW 14:10:24 10° SW visible
25 Jan 6.5 13:38:22 10° N 13:41:55 62° WNW 13:45:30 10° SSW visible
26 Jan 10.0 01:46:25 10° WSW 01:47:56 12° W 01:49:28 10° WNW visible
26 Jan 7.3 13:12:54 10° NNE 13:16:27 54° E 13:20:00 10° S visible
27 Jan 9.0 12:47:54 10° NE 12:50:53 24° E 12:53:54 10° SSE visible
28 Jan 10.1 12:24:02 10° ENE 12:25:15 11° E 12:26:28 10° ESE visible
28 Jan 7.2 13:55:24 10° N 13:58:43 35° WNW 14:02:04 10° SW visible
29 Jan 6.5 13:29:40 10° N 13:33:18 83° WNW 13:36:58 10° SSW visible
